Zurück zum Katalog

KUIPER-00414

AktivKommunikationLEO
NORAD 68929·PAYLOAD·🇺🇸 United States

Gestartet Apr 30, 2026 von Guiana Space Centre

Loading…

Nächste Überflüge (nächste 24 Stunden)

TLE

AktuellSource: CelesTrak SupGP

Epoche: Sep 15, 2026, 00:35 UTC

1 68929C 26098L   26258.02469907 -.00000074  00000+0 -97155-5 0  2581
2 68929  51.8977  33.4755 0001586 126.2899 336.6033 14.79937321    18

Verfolge KUIPER-00414 in Echtzeit mit AllMySat

Download on the App Store